www.pogodaiklimat.ru
ПОГОДА в Колледж Парк
Время
и дата
12:15 07.12
12:35 07.12
12:55 07.12
13:15 07.12
13:35 07.12
13:55 07.12
14:15 07.12
14:35 07.12
14:55 07.12
15:15 07.12
15:35 07.12
15:55 07.12
16:15 07.12
16:35 07.12
16:55 07.12
17:15 07.12
17:35 07.12
17:55 07.12
18:15 07.12
18:35 07.12
18:55 07.12
19:15 07.12
19:35 07.12
19:55 07.12
20:15 07.12
20:35 07.12
20:55 07.12
21:15 07.12
21:35 07.12
21:55 07.12
22:15 07.12
22:35 07.12
22:55 07.12
23:15 07.12
09:35 08.12
09:55 08.12
10:15 08.12
10:35 08.12
10:55 08.12
11:15 08.12
11:35 08.12
11:55 08.12
12:10 08.12
12:35 08.12
12:55 08.12
13:15 08.12
13:35 08.12
13:55 08.12
Ветер
(напр.,м/с)
Видим. Явления Облачность Т
(С)
Тd
(С)
f
(%)
Тe
(С)
Тes
(С)
Комфортность P
(гПа)
Po
(гПа)
Тmin
(С)
Tmax
(С)
R
(мм)
R24
(мм)
S
(см)
ЮЗ 2 16 км 10/10 240 м +12.5 +11.2 92 +12 +12 1019.4
ЮЗ 2 16 км 10/10 240 м +12.5 +11.2 92 +12 +12 1019.4
Ю 2 16 км 10/10 240 м +12.7 +11.3 91 +12 +12 1019.4 +10.9 +12.8 0.8
Ю 2 16 км 10/10 240 м +12.7 +11.3 91 +12 +12 1019.1
Ю 2 16 км 10/10 240 м +12.4 +11.3 93 +11 +11 1018.7
Ю 2 11 км 10/10 240 м +12.5 +11.4 93 +11 +11 1018.4
ЮВ 2 16 км 10/10 180 м +12.5 +11.3 92 +12 +12 1018.4
ЮЗ 2 11 км 10/10 180 м +12.6 +11.5 93 +12 +12 1018.7
штиль 0 11 км 10/10 180 м +12.7 +11.5 92 +12 +12 1018.7
Ю 2 11 км 10/10 180 м +12.8 +11.6 92 +12 +12 1018.7
Ю 2 11 км дымка 10/10 180 м +12.8 +11.6 92 +12 +12 1018.4
Ю 2 11 км 10/10 180 м +12.9 +11.7 92 +12 +12 1018.7
Ю 2 11 км 10/10 180 м +12.9 +11.7 92 +12 +12 1018.7
ЮЗ 2 11 км 10/10 180 м +12.9 +11.7 92 +12 +12 1019.1
штиль 0 11 км 10/10 180 м +12.9 +11.7 92 +12 +12 1019.1
штиль 0 11 км 10/10 180 м +12.7 +11.7 94 +12 +12 1019.1
Ю 2 11 км 10/10 180 м +12.8 +11.9 94 +12 +12 1019.1
штиль 0 11 км дымка 10/10 180 м +12.9 +11.9 94 +12 +12 1019.4
Ю 2 11 км дымка 10/10 180 м +12.8 +11.9 94 +12 +12 1019.4
штиль 0 11 км дымка 10/10 180 м +12.8 +11.9 94 +12 +12 1019.4
З 2 11 км дымка 10/10 180 м +12.9 +12.0 94 +12 +12 1019.4 +12.4 +12.9
штиль 0 11 км 10/10 180 м +12.9 +12.0 94 +12 +12 1019.4
штиль 0 11 км дымка 10/10 180 м +12.8 +12.1 96 +12 +12 1019.7
З 2 8 км дымка 10/10 120 м +12.8 +12.2 96 +12 +12 1019.7
З 2 8 км дымка 10/10 120 м +12.7 +12.2 97 +12 +12 1020.1
штиль 0 11 км дымка 10/10 120 м +12.7 +12.1 96 +12 +12 1020.1
СЗ 2 11 км 10/10 120 м +12.7 +12.0 96 +12 +12 1020.4
С 2 11 км дымка 10/10 120 м +12.6 +12.0 96 +12 +12 1020.8
штиль 0 11 км дымка 10/10 120 м +12.5 +11.9 96 +12 +12 1020.8
С 2 11 км 10/10 180 м +12.2 +11.5 95 +11 +11 1020.8
штиль 0 16 км 10/10 180 м +12.2 +11.4 95 +12 +12 1020.8
СЗ 2 8 км дымка 10/10 180 м +11.8 +11.4 97 +11 +11 1020.8
С 2 8 км дымка 10/10 120 м +11.8 +11.3 97 +11 +11 1020.8
штиль 0 6 км дымка 10/10 120 м +11.6 +11.3 98 +11 +11 1020.8
С 3 16 км ясно +11.5 +8.2 80 +10 +11 1023.8
С 4 16 км ясно +12.4 +6.6 68 +11 +11 1023.8
С 4 16 км ясно +12.6 +6.3 65 +11 +13 1023.8
С 3 16 км ясно +12.9 +5.8 62 +12 +14 1024.1
С 3 16 км ясно +12.7 +5.3 61 +11 +14 1024.5
С 4 16 км 5/5 1380 м +13.0 +5.3 59 +11 +13 1024.5
С 3 16 км 8/8 1170 м +13.0 +5.0 58 +12 +13 1023.8
С 5 16 км 10/10 1230 м +13.6 +4.8 55 +12 +12 1023.8
СЗ 5 16 км 5/5 1230 м +13.5 +4.0 53 +12 +13 1023.5
С 3 16 км ясно +13.5 +4.2 53 +13 +17 1022.8
С 4 16 км ясно +13.4 +3.9 53 +12 +15 1022.8 +5.7 +13.8
СЗ 3 16 км 5/5 1320 м +13.4 +4.1 53 +12 +14 1022.8
С 3 16 км 8/8 1320 м +13.6 +3.9 52 +13 +13 1022.4
СЗ 3 16 км 8/8 1320 м +13.4 +3.8 52 +12 +13 1022.4
Местоположение метеостанции College Park Airport: широта 38.9806 долгота -76.9223 высота над уровнем моря 15 м.
В архиве по умолчанию представлена погода в Колледж Парк за последние 1-2 суток. Обновление информации о фактической погоде в базе происходит ежечасно! Архивные данные за месяц целиком и за предыдущие месяцы Вы можете получить, выбрав интересующий диапазон дат из раскрывающегося списка и нажав кнопку "Ввод!".
Внимание! Архив погоды МЕТАР в базе сайта по станциям, не включенным в климатический монитор, хранится не более 60 дней. Нет смысла пытаться выбрать более раннюю дату.
*Определитесь, кто Вы:
Внимание! Время в таблицах - местное (без учета летнего времени). Для получения всемирного времени необходимо вычесть поправку, которая равна -5 ч.
Смотрите также архив погоды в соседних городах и на ближайших метеорологических станциях:
Партнеры нашего сайта:      
Пояснения к столбцам:
  • Ветер - указаны скорость ветра в м/с - средняя за 10 мин, порывы в срок и между сроками (в фигурных скобках) и направление, откуда дует ветер: С - северный,
  • СВ - северо-восточный, В - восточный, ЮВ - юго-восточный, Ю - южный, ЮЗ - юго-западный, З - западный, СЗ - северо-западный.
  • Видимость - горизонтальная дальность видимости в метрах или километрах. При видимости от 1 до 10 км при отсутствии осадков обычно наблюдается дымка, при ухудшении видимости до 1 км и менее - туман. В сухую погоду видимость может ухудшаться дымом, пылью или мглою.
  • Явления - указаны атмосферные явления, наблюдавшиеся в срок или в последний час перед сроком; фигурными скобками обозначены явления, наблюдавшиеся между сроками (за 1-3 часа до срока); квадратными скобками обозначены град или гололедные отложения с указанием их диаметра в мм.
  • Облачность - указаны через наклонную черту общая и нижняя облачность в баллах и высота нижней границы облаков в метрах; квадратными скобками обозначены формы облаков: Ci - перистые, Cs - перисто-слоистые, Cc - перисто-кучевые, Ac - высококучевые, As - высокослоистые, Sc - слоисто-кучевые, Ns - слоисто-дождевые, Cu - кучевые, Cb - кучево-дождевые. Подробнее классификацию облаков см. в Атласе облаков (PDF).
  • T - Температура воздуха - температура, измеренная на высоте 2 м над землей.
  • Td - Температура точки росы - температура, при понижении до которой содержащийся в воздухе водяной пар достигнет насыщения.
  • f - Относительная влажность воздуха - влажноcть воздуха, измеренная на высоте 2 м над землей.
  • Te - Эффективная температура - температура, которую ощущает одетый по сезону человек в тени. Характеристика душности погоды. При расчете учитывается влияние влажности воздуха и скорости ветра на теплоощущения человека.
  • Tes - Эффективная температура на солнце - температура, которую ощущает человек, с поправкой на солнечный нагрев. Характеристика знойности погоды. Зависит от высоты солнца над горизонтом, облачности и скорости ветра. Ночью, в пасмурную погоду, а также при ветре 12 м/с и более поправка равна нулю.
  • P - Атмосферное давление - приведенное к уровню моря атмосферное давление.
  • Po - Атмосферное давление - измеренное на уровне метеостанции атмосферное давление.
  • Tmin - Минимальная температура - минимум температуры воздуха на высоте 2 м над землей.
  • Tmax - Максимальная температура - максимум температуры воздуха на высоте 2 м над землей.
  • R - Количество осадков - Количество выпавших осадков за период времени, мм. При наведении курсора мыши на число - период времени, за который выпало указанное количество осадков.
  • R24 - Количество осадков - Количество выпавших осадков за 24 часа, мм.
  • S - Снежный покров - Высота снежного покрова, см. При наведении курсора мыши на число - состояние снежного покрова и степень покрытия местности в баллах.